This demonstration page uses our WeatherBlox Daily Observations layout. Learn more.

Left ArrowRight Arrow

Hourly Observations for October 30, 2021

Temp ( °F °C ) Dew Point ( °F °C ) Humidity (%) Winds ( mph kmh ) Pressure ( in mb ) Visibility ( mi km ) Precip ( " mm )
12:53 am 00:53 Clear 46 7.8 18 -7.8 32 32 N 6 9 29.97 1015 8 13 N/A
1:53 am 01:53 Clear 44 6.7 20 -6.7 38 38 NNW 6 9 29.96 1015 9 14 N/A
2:53 am 02:53 Clear 42 5.6 19 -7.2 40 40 N 8 13 29.96 1015 9 14 N/A
3:53 am 03:53 Clear 41 5 20 -6.7 43 43 N 7 11 29.95 1014 10 16 N/A
4:53 am 04:53 Clear 40 4.4 19 -7.2 43 43 N 6 9 29.93 1014 10 16 N/A
5:53 am 05:53 Clear 39 3.9 19 -7.2 45 45 N 6 9 29.92 1013 10 16 N/A
6:53 am 06:53 Clear 38 3.3 18 -7.8 44 44 N 6 9 29.92 1013 10 16 N/A
7:53 am 07:53 Clear 38 3.3 19 -7.2 46 46 N 6 9 29.93 1014 10 16 N/A
8:53 am 08:53 Sunny 42 5.6 20 -6.7 41 41 NNE 3 6 29.94 1014 10 16 N/A
9:53 am 09:53 Sunny 53 11.7 23 -5 31 31 N N/A 29.94 1014 10 16 N/A
10:53 am 10:53 Sunny 61 16.1 25 -3.9 25 25 N N/A 29.93 1014 10 16 N/A
11:53 am 11:53 Sunny 69 20.6 24 -4.4 18 18 SW 5 7 29.91 1013 10 16 N/A
12:53 pm 12:53 Sunny 75 23.9 24 -4.4 15 15 W 9 15 29.88 1012 10 16 N/A
1:53 pm 13:53 Sunny 81 27.2 22 -5.6 11 11 W 10 17 29.83 1010 10 16 N/A
2:53 pm 14:53 Sunny 85 29.4 22 -5.6 10 10 WSW 12 19 29.79 1009 10 16 N/A
3:53 pm 15:53 Sunny 86 30 23 -5 10 10 W 8 13 29.77 1008 10 16 N/A
4:53 pm 16:53 Sunny 86 30 22 -5.6 9 9 N N/A 29.76 1008 10 16 N/A
5:53 pm 17:53 Sunny 86 30 22 -5.6 9 9 WSW 8 13 29.76 1008 10 16 N/A
6:53 pm 18:53 Sunny 83 28.3 22 -5.6 10 10 N N/A 29.77 1008 10 16 N/A
7:53 pm 19:53 Clear 77 25 23 -5 13 13 N N/A 29.79 1009 10 16 N/A
8:53 pm 20:53 Clear 72 22.2 22 -5.6 15 15 W 5 7 29.81 1009 10 16 N/A
9:53 pm 21:53 Clear 69 20.6 23 -5 17 17 W 9 15 29.80 1009 10 16 N/A
10:53 pm 22:53 Clear 62 16.7 22 -5.6 21 21 NW 10 17 29.81 1010 10 16 N/A
11:53 pm 23:53 Clear 62 16.7 22 -5.6 21 21 S 3 6 29.81 1009 10 16 N/A

Powered by AerisWeather